Weather History for Riverton, WY

Change the Weather History Date:

Saturday, June 22, 2013

  Actual Average Record
Temperature  
Mean Temperature 65 °F 65 °F  
Max Temperature 80 °F 80 °F 95 °F (2012)
Min Temperature 50 °F 51 °F 46 °F (2011)
Degree Days  
Heating Degree Days 0 2  
Month to date heating degree days 50 105  
Since 1 June heating degree days 50 105  
Since 1 July heating degree days 7533 7856  
Cooling Degree Days 0 3  
Month to date cooling degree days 63 37  
Year to date cooling degree days 76 46  
Since 1 June cooling degree days 63 37  
Growing Degree Days 16 (Base 50)    
Moisture  
Dew Point 40 °F    
Average Humidity 38    
Maximum Humidity 67    
Minimum Humidity 8    
Precipitation  
Precipitation 0.04 in 0.04 in 0.14 in (2014)
Month to date precipitation 0.05 0.99  
Year to date precipitation 3.49 5.07  
Snow  
Snow 0.00 in - - ()
Month to date snowfall 0.0  
Since 1 June snowfall 0.0  
Since 1 July snowfall 38.2  
Snow Depth 0.00 in    
Sea Level Pressure  
Sea Level Pressure 29.82 in    
Wind  
Wind Speed 9 mph (NNE)    
Max Wind Speed 32 mph    
Max Gust Speed 40 mph    
Visibility 10 miles    
Events Rain , Thunderstorm    
T = Trace of Precipitation, MM = Missing Value Source: NWS Daily Summary

Daily Weather History Graph

Daily Weather History Graph

Search for Another Location

Airport:

Trip Planner

Search our weather history database for the weather conditions in past years. The results will help you decide how hot, cold, wet, or windy it might be!

Date:

Astronomy

Jun. 22, 2013 Rise Set
Actual Time 5:34 AM MDT 8:57 PM MDT
Civil Twilight 4:59 AM MDT 9:32 PM MDT
Nautical Twilight 4:13 AM MDT 10:18 PM MDT
Astronomical Twilight 3:15 AM MDT 11:15 PM MDT
Moon 8:13 PM MDT (6/22) 4:52 AM MDT (6/22)
Length of Visible Light 16h 33m
Length of Day
15h 22m
Waxing Gibbous, 99% of the Moon is Illuminated
Jun 22
Waxing Gibbous
Jun 23
Full
Jun 29
Last Quarter
Jul 8
New
Jul 15
First Quarter

Hourly Weather History & Observations

Time (MDT) Temp. Dew Point Humidity Pressure Visibility Wind Dir Wind Speed Gust Speed Precip Events Conditions
12:53 AM 61.0 °F 46.0 °F 58% 29.83 in 10.0 mi ESE 17.3 mph 25.3 mph N/A   Mostly Cloudy
1:53 AM 62.1 °F 46.0 °F 56% 29.82 in 10.0 mi East 9.2 mph - N/A   Overcast
2:53 AM 61.0 °F 43.0 °F 52% 29.81 in 10.0 mi SE 8.1 mph - N/A   Partly Cloudy
3:53 AM 57.9 °F 46.0 °F 65% 29.81 in 10.0 mi NE 4.6 mph - N/A   Clear
4:53 AM 55.9 °F 45.0 °F 67% 29.82 in 10.0 mi NNE 9.2 mph - N/A   Clear
5:53 AM 54.0 °F 41.0 °F 62% 29.83 in 10.0 mi NNW 8.1 mph - N/A   Clear
6:53 AM 57.9 °F 37.9 °F 47% 29.84 in 10.0 mi North 9.2 mph - N/A   Clear
7:53 AM 63.0 °F 39.0 °F 41% 29.83 in 10.0 mi North 6.9 mph - N/A   Clear
8:53 AM 66.0 °F 39.9 °F 38% 29.82 in 10.0 mi North 8.1 mph - N/A   Partly Cloudy
9:53 AM 66.0 °F 39.0 °F 37% 29.82 in 10.0 mi WNW 6.9 mph - N/A   Mostly Cloudy
10:45 AM 60.8 °F 46.4 °F 59% 29.98 in 10.0 mi Variable 3.5 mph - 0.04 in Rain , Thunderstorm Light Rain
10:53 AM 61.0 °F 51.1 °F 70% 29.82 in 10.0 mi Calm Calm - 0.04 in Rain , Thunderstorm Light Rain
11:00 AM 62.6 °F 46.4 °F 55% 29.98 in 10.0 mi NNE 3.5 mph - N/A   Scattered Clouds
11:53 AM 66.0 °F 42.1 °F 42% 29.79 in 10.0 mi ENE 4.6 mph - N/A   Partly Cloudy
12:53 PM 64.0 °F 43.0 °F 46% 29.79 in 10.0 mi NE 4.6 mph - N/A   Partly Cloudy
1:53 PM 70.0 °F 39.9 °F 33% 29.73 in 10.0 mi East 8.1 mph - N/A   Partly Cloudy
2:53 PM 72.0 °F 39.9 °F 31% 29.70 in 10.0 mi Variable 6.9 mph - N/A   Clear
3:53 PM 75.0 °F 30.0 °F 19% 29.69 in 10.0 mi West 10.4 mph 23.0 mph N/A   Partly Cloudy
4:53 PM 78.1 °F 12.0 °F 8% 29.69 in 10.0 mi West 20.7 mph 26.5 mph N/A   Clear
5:28 PM 75.2 °F 37.4 °F 25% 29.89 in 10.0 mi Variable 3.5 mph 18.4 mph N/A   Clear
5:53 PM 71.1 °F 39.0 °F 31% 29.73 in 10.0 mi North 19.6 mph 27.6 mph N/A   Clear
6:53 PM 68.0 °F 37.0 °F 32% 29.76 in 10.0 mi North 17.3 mph 26.5 mph N/A   Clear
7:53 PM 64.9 °F 37.9 °F 37% 29.79 in 10.0 mi North 16.1 mph 23.0 mph N/A   Clear
8:53 PM 62.1 °F 37.9 °F 41% 29.83 in 10.0 mi NNE 11.5 mph - N/A   Clear
9:53 PM 59.0 °F 37.0 °F 44% 29.88 in 10.0 mi NNE 11.5 mph - N/A   Clear
10:53 PM 55.9 °F 35.1 °F 45% 29.93 in 10.0 mi NNE 8.1 mph - N/A   Clear
11:53 PM 54.0 °F 37.0 °F 53% 29.93 in 10.0 mi NNE 8.1 mph - N/A   Clear